| time (UTC) | temp F | wind direction | speed MPH | gust MPH | rain 1hr in | rain 24hr in | rain mn in | humidity % | barometer mb |
| 20260510022543 | 95 | 198 | 0.0 | 6.0 | 0.00 | 0.00 | 0.00 | 15 | 1006.3 |
| 20260510021542 | 96 | 255 | 4.0 | 6.0 | 0.00 | 0.00 | 0.00 | 15 | 1006.1 |
| 20260510020541 | 96 | 226 | 2.0 | 6.0 | 0.00 | 0.00 | 0.00 | 15 | 1006.3 |
| 20260510015543 | 97 | 237 | 3.0 | 10.0 | 0.00 | 0.00 | 0.00 | 15 | 1006.1 |
| 20260510014540 | 97 | 226 | 3.0 | 10.0 | 0.00 | 0.00 | 0.00 | 15 | 1005.8 |
| 20260510013542 | 98 | 285 | 3.0 | 8.0 | 0.00 | 0.00 | 0.00 | 15 | 1006.0 |
| 20260510012539 | 98 | 344 | 2.0 | 9.0 | 0.00 | 0.00 | 0.00 | 15 | 1006.1 |
| 20260510011541 | 100 | 287 | 1.0 | 6.0 | 0.00 | 0.00 | 0.00 | 14 | 1005.9 |
| 20260510010539 | 101 | 3 | 1.0 | 10.0 | 0.00 | 0.00 | 0.00 | 14 | 1006.1 |
| 20260510005539 | 101 | 342 | 4.0 | 11.0 | 0.00 | 0.00 | 0.00 | 14 | 1006.1 |
| 20260510004538 | 101 | 203 | 2.0 | 11.0 | 0.00 | 0.00 | 0.00 | 14 | 1006.0 |
| 20260510003537 | 102 | 258 | 1.0 | 11.0 | 0.00 | 0.00 | 0.00 | 13 | 1005.9 |
| 20260510002536 | 102 | 263 | 3.0 | 10.0 | 0.00 | 0.00 | 0.00 | 13 | 1006.0 |
| 20260510001537 | 103 | 267 | 3.0 | 11.0 | 0.00 | 0.00 | 0.00 | 13 | 1006.1 |
| 20260510000535 | 103 | 220 | 0.0 | 11.0 | 0.00 | 0.00 | 0.00 | 14 | 1006.3 |
| 20260509234540 | 103 | 53 | 2.0 | 12.0 | 0.00 | 0.00 | 0.00 | 14 | 1006.2 |
| 20260509233535 | 104 | 314 | 3.0 | 11.0 | 0.00 | 0.00 | 0.00 | 13 | 1006.2 |
| 20260509232530 | 103 | 219 | 3.0 | 10.0 | 0.00 | 0.00 | 0.00 | 14 | 1006.4 |
| 20260509231532 | 103 | 274 | 2.0 | 9.0 | 0.00 | 0.00 | 0.00 | 13 | 1007.0 |
| 20260509230530 | 103 | 228 | 3.0 | 13.0 | 0.00 | 0.00 | 0.00 | 14 | 1006.6 |
| 20260509225530 | 104 | 238 | 3.0 | 9.0 | 0.00 | 0.00 | 0.00 | 14 | 1006.9 |
| 20260509223532 | 104 | 230 | 2.0 | 9.0 | 0.00 | 0.00 | 0.00 | 14 | 1007.0 |
| 20260509222530 | 102 | 62 | 0.0 | 6.0 | 0.00 | 0.00 | 0.00 | 14 | 1007.3 |
| 20260509221530 | 104 | 329 | 2.0 | 11.0 | 0.00 | 0.00 | 0.00 | 14 | 1007.0 |
| 20260509220531 | 103 | 258 | 6.0 | 12.0 | 0.00 | 0.00 | 0.00 | 14 | 1007.2 |
| 20260509215529 | 101 | 325 | 2.0 | 13.0 | 0.00 | 0.00 | 0.00 | 14 | 1007.5 |
| 20260509214531 | 104 | 31 | 2.0 | 13.0 | 0.00 | 0.00 | 0.00 | 14 | 1007.8 |
| 20260509213531 | 103 | 302 | 4.0 | 11.0 | 0.00 | 0.00 | 0.00 | 14 | 1007.7 |
| 20260509212530 | 102 | 249 | 3.0 | 11.0 | 0.00 | 0.00 | 0.00 | 14 | 1007.6 |
| 20260509211531 | 102 | 320 | 2.0 | 11.0 | 0.00 | 0.00 | 0.00 | 14 | 1008.1 |
| 20260509210531 | 101 | 274 | 4.0 | 11.0 | 0.00 | 0.00 | 0.00 | 14 | 1008.3 |
| 20260509205530 | 101 | 280 | 1.0 | 8.0 | 0.00 | 0.00 | 0.00 | 14 | 1008.5 |
| 20260509204531 | 102 | 346 | 6.0 | 9.0 | 0.00 | 0.00 | 0.00 | 14 | 1008.5 |
| 20260509203531 | 100 | 241 | 2.0 | 8.0 | 0.00 | 0.00 | 0.00 | 15 | 1008.6 |
| 20260509202539 | 101 | 268 | 6.0 | 9.0 | 0.00 | 0.00 | 0.00 | 14 | 1009.0 |
| 20260509201531 | 99 | 346 | 2.0 | 11.0 | 0.00 | 0.00 | 0.00 | 15 | 1009.4 |
| 20260509200530 | 100 | 303 | 4.0 | 12.0 | 0.00 | 0.00 | 0.00 | 15 | 1009.3 |
| 20260509195530 | 100 | 233 | 2.0 | 9.0 | 0.00 | 0.00 | 0.00 | 14 | 1009.4 |
| 20260509194530 | 98 | 160 | 3.0 | 6.0 | 0.00 | 0.00 | 0.00 | 16 | 1009.4 |
| 20260509192530 | 98 | 305 | 2.0 | 6.0 | 0.00 | 0.00 | 0.00 | 16 | 1010.0 |
| 20260509190531 | 97 | 255 | 2.0 | 6.0 | 0.00 | 0.00 | 0.00 | 18 | 1009.8 |
| 20260509185529 | 96 | 305 | 1.0 | 7.0 | 0.00 | 0.00 | 0.00 | 17 | 1010.0 |
| 20260509184530 | 97 | 242 | 3.0 | 7.0 | 0.00 | 0.00 | 0.00 | 18 | 1010.1 |
| 20260509183531 | 96 | 250 | 2.0 | 6.0 | 0.00 | 0.00 | 0.00 | 17 | 1010.2 |
| 20260509181531 | 95 | 228 | 5.0 | 6.0 | 0.00 | 0.00 | 0.00 | 17 | 1010.7 |
| 20260509180531 | 97 | 176 | 2.0 | 5.0 | 0.00 | 0.00 | 0.00 | 18 | 1010.8 |
| 20260509175531 | 95 | 160 | 3.0 | 6.0 | 0.00 | 0.00 | 0.00 | 18 | 1010.8 |
| 20260509174530 | 94 | 185 | 2.0 | 6.0 | 0.00 | 0.00 | 0.00 | 18 | 1010.8 |
| 20260509173536 | 94 | 143 | 4.0 | 6.0 | 0.00 | 0.00 | 0.00 | 19 | 1011.0 |
| 20260509172530 | 92 | 261 | 5.0 | 5.0 | 0.00 | 0.00 | 0.00 | 19 | 1011.0 |
| 20260509171530 | 93 | 348 | 0.0 | 5.0 | 0.00 | 0.00 | 0.00 | 20 | 1011.1 |
| 20260509170530 | 92 | 205 | 0.0 | 6.0 | 0.00 | 0.00 | 0.00 | 19 | 1011.1 |
| 20260509165529 | 93 | 151 | 2.0 | 6.0 | 0.00 | 0.00 | 0.00 | 19 | 1011.1 |
| 20260509163529 | 90 | 251 | 2.0 | 6.0 | 0.00 | 0.00 | 0.00 | 20 | 1010.9 |
| 20260509161529 | 91 | 174 | 3.0 | 5.0 | 0.00 | 0.00 | 0.00 | 20 | 1011.2 |
| 20260509160530 | 88 | 236 | 2.0 | 6.0 | 0.00 | 0.00 | 0.00 | 20 | 1011.2 |
| 20260509155528 | 88 | 259 | 1.0 | 6.0 | 0.00 | 0.00 | 0.00 | 23 | 1011.5 |
| 20260509154529 | 87 | 159 | 1.0 | 5.0 | 0.00 | 0.00 | 0.00 | 22 | 1011.1 |
| 20260509153529 | 86 | 273 | 2.0 | 5.0 | 0.00 | 0.00 | 0.00 | 23 | 1011.3 |
| 20260509152528 | 86 | 163 | 1.0 | 5.0 | 0.00 | 0.00 | 0.00 | 23 | 1011.3 |
| 20260509151528 | 86 | 240 | 4.0 | 5.0 | 0.00 | 0.00 | 0.00 | 24 | 1011.5 |
| 20260509150527 | 84 | 204 | 2.0 | 4.0 | 0.00 | 0.00 | 0.00 | 25 | 1011.3 |
| 20260509145528 | 83 | 174 | 2.0 | 4.0 | 0.00 | 0.00 | 0.00 | 25 | 1011.1 |
| 20260509144527 | 81 | 177 | 2.0 | 4.0 | 0.00 | 0.00 | 0.00 | 26 | 1011.3 |
| 20260509141527 | 78 | 182 | 1.0 | 3.0 | 0.00 | 0.00 | 0.00 | 27 | 1010.9 |
| 20260509140527 | 77 | 191 | 2.0 | 3.0 | 0.00 | 0.00 | 0.00 | 27 | 1011.1 |
| 20260509135528 | 75 | 226 | 2.0 | 3.0 | 0.00 | 0.00 | 0.00 | 28 | 1010.8 |
| 20260509134527 | 74 | 255 | 2.0 | 2.0 | 0.00 | 0.00 | 0.00 | 29 | 1010.9 |
| 20260509133527 | 73 | 210 | 2.0 | 2.0 | 0.00 | 0.00 | 0.00 | 29 | 1010.6 |
| 20260509131527 | 70 | 234 | 1.0 | 2.0 | 0.00 | 0.00 | 0.00 | 31 | 1010.4 |
| 20260509125525 | 69 | 254 | 1.0 | 2.0 | 0.00 | 0.00 | 0.00 | 31 | 1010.6 |
| 20260509124525 | 69 | 242 | 1.0 | 2.0 | 0.00 | 0.00 | 0.00 | 30 | 1010.0 |
| 20260509123524 | 69 | 211 | 2.0 | 3.0 | 0.00 | 0.00 | 0.00 | 30 | 1010.1 |
| 20260509122524 | 69 | 196 | 2.0 | 3.0 | 0.00 | 0.00 | 0.00 | 30 | 1009.9 |
| 20260509120524 | 69 | 215 | 2.0 | 3.0 | 0.00 | 0.00 | 0.00 | 30 | 1009.7 |
| 20260509114526 | 69 | 196 | 0.0 | 4.0 | 0.00 | 0.00 | 0.00 | 30 | 1009.7 |
| 20260509112514 | 69 | 216 | 2.0 | 3.0 | 0.00 | 0.00 | 0.00 | 30 | 1009.5 |
| 20260509110524 | 69 | 199 | 2.0 | 3.0 | 0.00 | 0.00 | 0.00 | 29 | 1009.4 |
| 20260509105513 | 69 | 220 | 1.0 | 3.0 | 0.00 | 0.00 | 0.00 | 29 | 1009.3 |
| 20260509104520 | 69 | 181 | 2.0 | 3.0 | 0.00 | 0.00 | 0.00 | 29 | 1009.3 |
| 20260509102519 | 70 | 178 | 2.0 | 3.0 | 0.00 | 0.00 | 0.00 | 28 | 1009.6 |
| 20260509101517 | 71 | 179 | 2.0 | 3.0 | 0.00 | 0.00 | 0.00 | 28 | 1009.4 |
| 20260509100518 | 72 | 180 | 1.0 | 3.0 | 0.00 | 0.00 | 0.00 | 27 | 1009.4 |
| 20260509095516 | 73 | 211 | 1.0 | 2.0 | 0.00 | 0.00 | 0.00 | 27 | 1009.6 |
| 20260509094515 | 73 | 218 | 2.0 | 2.0 | 0.00 | 0.00 | 0.00 | 26 | 1009.5 |
| 20260509093517 | 73 | 193 | 2.0 | 2.0 | 0.00 | 0.00 | 0.00 | 26 | 1009.5 |
| 20260509092512 | 74 | 254 | 1.0 | 2.0 | 0.00 | 0.00 | 0.00 | 26 | 1009.6 |
| 20260509091511 | 74 | 210 | 2.0 | 2.0 | 0.00 | 0.00 | 0.00 | 26 | 1009.4 |
| 20260509090513 | 75 | 225 | 2.0 | 3.0 | 0.00 | 0.00 | 0.00 | 25 | 1009.4 |
| 20260509085512 | 75 | 186 | 2.0 | 3.0 | 0.00 | 0.00 | 0.00 | 25 | 1009.3 |
| 20260509084514 | 75 | 219 | 1.0 | 2.0 | 0.00 | 0.00 | 0.00 | 25 | 1009.2 |
| 20260509083511 | 75 | 217 | 1.0 | 2.0 | 0.00 | 0.00 | 0.00 | 25 | 1009.7 |
| 20260509080510 | 76 | 187 | 1.0 | 2.0 | 0.00 | 0.00 | 0.00 | 25 | 1009.6 |
| 20260509075511 | 76 | 202 | 1.0 | 3.0 | 0.00 | 0.00 | 0.00 | 25 | 1009.6 |
| 20260509074511 | 77 | 196 | 1.0 | 3.0 | 0.00 | 0.00 | 0.00 | 25 | 1009.4 |
| 20260509073510 | 77 | 230 | 1.0 | 2.0 | 0.00 | 0.00 | 0.00 | 25 | 1009.5 |
| 20260509071510 | 78 | 192 | 1.0 | 4.0 | 0.00 | 0.00 | 0.00 | 24 | 1009.5 |
| 20260509070512 | 78 | 118 | 3.0 | 6.0 | 0.00 | 0.00 | 0.00 | 24 | 1009.3 |
| 20260509065510 | 78 | 200 | 1.0 | 3.0 | 0.00 | 0.00 | 0.00 | 25 | 1009.3 |
| 20260509064511 | 79 | 261 | 1.0 | 3.0 | 0.00 | 0.00 | 0.00 | 25 | 1009.0 |
| 20260509062513 | 79 | 231 | 2.0 | 3.0 | 0.00 | 0.00 | 0.00 | 25 | 1009.0 |
| 20260509061511 | 80 | 190 | 1.0 | 3.0 | 0.00 | 0.00 | 0.00 | 24 | 1009.2 |
| 20260509060511 | 84 | 245 | 2.0 | 6.0 | 0.00 | 0.00 | 0.00 | 22 | 1008.9 |
| 20260509055511 | 85 | 287 | 4.0 | 6.0 | 0.00 | 0.00 | 0.00 | 21 | 1009.0 |
| 20260509054512 | 86 | 271 | 5.0 | 7.0 | 0.00 | 0.00 | 0.00 | 21 | 1008.8 |
| 20260509053511 | 86 | 277 | 3.0 | 7.0 | 0.00 | 0.00 | 0.00 | 21 | 1009.0 |
| 20260509052513 | 86 | 266 | 5.0 | 8.0 | 0.00 | 0.00 | 0.00 | 21 | 1008.9 |
| 20260509050507 | 87 | 305 | 4.0 | 10.0 | 0.00 | 0.00 | 0.00 | 21 | 1008.7 |
| 20260509045504 | 87 | 287 | 0.0 | 9.0 | 0.00 | 0.00 | 0.00 | 21 | 1008.8 |
| 20260509044502 | 87 | 275 | 5.0 | 9.0 | 0.00 | 0.00 | 0.00 | 21 | 1008.9 |
| 20260509043506 | 87 | 291 | 4.0 | 10.0 | 0.00 | 0.00 | 0.00 | 20 | 1008.8 |
| 20260509042505 | 86 | 264 | 3.0 | 5.0 | 0.00 | 0.00 | 0.00 | 21 | 1008.5 |
| 20260509040502 | 85 | 285 | 0.0 | 4.0 | 0.00 | 0.00 | 0.00 | 21 | 1008.0 |
| 20260509035504 | 85 | 236 | 2.0 | 3.0 | 0.00 | 0.00 | 0.00 | 20 | 1008.3 |
| 20260509034502 | 86 | 242 | 2.0 | 3.0 | 0.00 | 0.00 | 0.00 | 20 | 1008.2 |
| 20260509033503 | 87 | 227 | 2.0 | 3.0 | 0.00 | 0.00 | 0.00 | 20 | 1007.8 |
| 20260509032503 | 88 | 281 | 0.0 | 3.0 | 0.00 | 0.00 | 0.00 | 20 | 1008.1 |
| 20260509031503 | 89 | 252 | 1.0 | 3.0 | 0.00 | 0.00 | 0.00 | 19 | 1007.9 |
| 20260509030504 | 89 | 246 | 2.0 | 3.0 | 0.00 | 0.00 | 0.00 | 19 | 1007.8 |
| 20260509025504 | 90 | 262 | 1.0 | 3.0 | 0.00 | 0.00 | 0.00 | 19 | 1007.7 |
| 20260509023503 | 92 | 253 | 0.0 | 5.0 | 0.00 | 0.00 | 0.00 | 17 | 1007.3 |